User: anonymous   Login
Location: Caltech
(34.1382°N, 118.1253°W)
Time: 15:23:37
(UTC-07:00)
Language:

Hubble Space Telescope - Orbit

View from above orbital plane
View from above orbital plane
View from above satellite
View from above satellite

Ground track
Ground track

The orbit data is extracted from the following two-line orbital elements,

1 20580U 90037B   15088.06942065  .00004449  00000-0  27781-3 0  9997
2 20580 028.4705 322.3242 0003236 094.1204 055.2533 15.07068081167716
Epoch (UTC): 29 March 2015 01:39:57
Eccentricity: 0.0003236
inclination: 28.4705°
perigee height: 543 km
apogee height: 547 km
right ascension of ascending node: 322.3242°
argument of perigee: 94.1204°
revolutions per day: 15.07068081
mean anomaly at epoch: 55.2533°
orbit number at epoch: 16771

The dashed part of the orbit path shows where the satellite is in the earth's shadow,  

DLR